This demonstration page uses our WeatherBlox Daily Observations layout. Learn more.

Left ArrowRight Arrow

38.89511, -77.03637

Hourly Observations for February 28, 2019

Temp ( °F °C ) Dew Point ( °F °C ) Humidity (%) Winds ( mph kmh ) Pressure ( in mb ) Visibility ( mi km ) Precip ( " mm )
12:52 am 00:52 Cloudy 41 5 33 0.6 73 73 S 8 13 29.95 1014 10 16 0.00 0.00
1:52 am 01:52 Cloudy 41 5 34 1.1 76 76 Calm 29.96 1014 10 16 0.00 0.00
2:52 am 02:52 Cloudy 41 5 35 1.7 79 79 NE 5 7 29.96 1014 10 16 0.00 0.00
3:52 am 03:52 Cloudy 41 5 35 1.7 79 79 NNW 9 15 29.98 1015 10 16 0.00 0.00
4:52 am 04:52 Cloudy 41 5 35 1.7 79 79 N 9 15 30.01 1016 10 16 0.00 0.00
5:52 am 05:52 Cloudy 41 5 33 0.6 73 73 N 10 17 30.04 1017 10 16 0.00 0.00
6:52 am 06:52 Partly Cloudy 39 3.9 32 0 76 76 NNW 8 13 30.06 1018 10 16 0.00 0.00
7:52 am 07:52 Mostly Sunny 43 6.1 30 -1.1 60 60 N 20 31 30.10 1019 10 16 0.00 0.00
8:52 am 08:52 Mostly Sunny 44 6.7 27 -2.8 51 51 N 20 31 30.13 1020 10 16 0.00 0.00
9:52 am 09:52 Mostly Sunny 45 7.2 25 -3.9 46 46 N 20 31 30.16 1021 10 16 0.00 0.00
10:52 am 10:52 Partly Cloudy 46 7.8 23 -5 40 40 NNW 10 17 30.16 1021 10 16 0.00 0.00
11:52 am 11:52 Partly Cloudy 46 7.8 22 -5.6 38 38 N 14 22 30.17 1022 10 16 0.00 0.00
12:52 pm 12:52 Partly Cloudy 48 8.9 20 -6.7 33 33 N 9 15 30.18 1022 10 16 0.00 0.00
1:52 pm 13:52 Partly Cloudy 49 9.4 19 -7.2 31 31 N 9 15 30.16 1021 10 16 0.00 0.00
2:52 pm 14:52 Partly Cloudy 50 10 19 -7.2 29 29 NNW 7 11 30.16 1021 10 16 0.00 0.00
3:52 pm 15:52 Partly Cloudy 49 9.4 17 -8.3 28 28 Calm 30.16 1022 10 16 0.00 0.00
4:52 pm 16:52 Partly Cloudy 47 8.3 20 -6.7 34 34 ENE 8 13 30.16 1021 10 16 0.00 0.00
5:52 pm 17:52 Mostly Cloudy 44 6.7 21 -6.1 40 40 E 12 19 30.17 1022 10 16 0.00 0.00
6:52 pm 18:52 Mostly Cloudy 41 5 21 -6.1 45 45 E 9 15 30.20 1023 10 16 0.00 0.00
7:52 pm 19:52 Cloudy 40 4.4 21 -6.1 47 47 E 14 22 30.20 1023 10 16 0.00 0.00
8:52 pm 20:52 Cloudy 40 4.4 19 -7.2 43 43 E 7 11 30.23 1024 10 16 0.00 0.00
9:52 pm 21:52 Cloudy 40 4.4 19 -7.2 43 43 ENE 12 19 30.24 1024 10 16 0.00 0.00
10:52 pm 22:52 Cloudy 39 3.9 20 -6.7 46 46 E 12 19 30.22 1023 10 16 0.00 0.00
11:52 pm 23:52 Cloudy 39 3.9 20 -6.7 46 46 ESE 8 13 30.23 1024 10 16 0.00 0.00

Powered by AerisWeather